When you browse on this site, cookies collect data to enhance your experience and personalize the content and advertising you see.
Visit our Privacy Policy to learn more. By continuing to use the site, you agree to this use of cookies and data.
  • In Sweden
  • List of Countries
  • For 7 days
  • Water Temperature
  • Weather Map
  • Weather Widgets
  • user-avatar
    Login

    Hourly Weather Canberra

    Today, 28 May, Thursday

    Time Temperature Precipitation Wind Pressure Humidity
    00:00 +7°C° 0 mm 0 mps 711 mmHg 93%
    01:00 +7°C° 0 mm 0 mps 711 mmHg 92%
    02:00 +7°C° 0.1 mm 0 mps 711 mmHg 92%
    03:00 +7°C° 0.1 mm 0 mps 711 mmHg 93%
    04:00 +7°C° 0 mm 0 mps 711 mmHg 94%
    05:00 +7°C° 0 mm 0 mps 711 mmHg 95%
    06:00 +6°C° 0 mm 0 mps 711 mmHg 96%
    07:00 +6°C° 0 mm 0 mps 712 mmHg 96%
    08:00 +9°C° 0 mm 1 mps 712 mmHg 91%
    09:00 +11°C° 0 mm 1 mps 712 mmHg 85%
    10:00 +13°C° 0 mm 1 mps 713 mmHg 78%
    11:00 +15°C° 0 mm 2 mps 712 mmHg 71%
    12:00 +16°C° 0 mm 2 mps 712 mmHg 64%
    13:00 +17°C° 0 mm 2 mps 712 mmHg 56%
    14:00 +16°C° 0 mm 2 mps 712 mmHg 59%
    15:00 +15°C° 0 mm 2 mps 712 mmHg 62%
    16:00 +14°C° 0 mm 3 mps 712 mmHg 65%
    17:00 +13°C° 0 mm 2 mps 712 mmHg 74%
    18:00 +10°C° 0 mm 2 mps 713 mmHg 83%
    19:00 +9°C° 0 mm 1 mps 713 mmHg 91%
    20:00 +8°C° 0 mm 1 mps 713 mmHg 92%
    21:00 +8°C° 0 mm 1 mps 714 mmHg 92%
    22:00 +6°C° 0 mm 0 mps 714 mmHg 93%
    23:00 +6°C° 0 mm 0 mps 714 mmHg 93%

    Tomorrow, 29 May, Friday

    Time Temperature Precipitation Wind Pressure Humidity
    00:00 +6°C° 0 mm 0 mps 714 mmHg 93%
    01:00 +6°C° 0 mm 1 mps 714 mmHg 93%
    02:00 +7°C° 0 mm 1 mps 714 mmHg 93%
    03:00 +6°C° 0 mm 0 mps 714 mmHg 94%
    04:00 +6°C° 0 mm 0 mps 714 mmHg 94%
    05:00 +6°C° 0 mm 0 mps 715 mmHg 92%
    06:00 +7°C° 0 mm 0 mps 715 mmHg 91%
    07:00 +7°C° 0 mm 0 mps 716 mmHg 89%
    08:00 +9°C° 0 mm 0 mps 716 mmHg 85%
    09:00 +10°C° 0 mm 0 mps 716 mmHg 80%
    10:00 +11°C° 0 mm 0 mps 717 mmHg 76%
    11:00 +13°C° 0 mm 1 mps 716 mmHg 71%
    12:00 +14°C° 0 mm 1 mps 716 mmHg 66%
    13:00 +15°C° 0 mm 1 mps 716 mmHg 61%
    14:00 +15°C° 0 mm 1 mps 715 mmHg 63%
    15:00 +15°C° 0 mm 1 mps 715 mmHg 65%
    16:00 +15°C° 0 mm 1 mps 715 mmHg 67%
    17:00 +13°C° 0 mm 1 mps 715 mmHg 74%
    18:00 +9°C° 0 mm 0 mps 716 mmHg 81%
    19:00 +7°C° 0 mm 0 mps 716 mmHg 89%
    20:00 +7°C° 0 mm 0 mps 716 mmHg 89%
    21:00 +6°C° 0 mm 0 mps 716 mmHg 90%
    22:00 +6°C° 0 mm 0 mps 716 mmHg 91%
    23:00 +6°C° 0 mm 0 mps 716 mmHg 91%

    Day after tomorrow, 30 May, Saturday

    Time Temperature Precipitation Wind Pressure Humidity
    00:00 +5°C° 0 mm 0 mps 716 mmHg 92%
    01:00 +5°C° 0 mm 0 mps 715 mmHg 92%
    02:00 +5°C° 0 mm 0 mps 715 mmHg 92%
    03:00 +4°C° 0 mm 0 mps 715 mmHg 92%
    04:00 +4°C° 0 mm 0 mps 715 mmHg 92%
    05:00 +4°C° 0 mm 0 mps 715 mmHg 92%
    06:00 +4°C° 0 mm 0 mps 715 mmHg 92%
    07:00 +3°C° 0 mm 0 mps 715 mmHg 92%
    08:00 +7°C° 0 mm 1 mps 715 mmHg 84%
    09:00 +9°C° 0 mm 1 mps 715 mmHg 76%
    10:00 +12°C° 0 mm 2 mps 716 mmHg 68%
    11:00 +12°C° 0 mm 3 mps 715 mmHg 63%
    12:00 +14°C° 0 mm 4 mps 714 mmHg 58%
    13:00 +15°C° 0 mm 4 mps 714 mmHg 53%
    14:00 +15°C° 0 mm 4 mps 713 mmHg 56%
    15:00 +14°C° 0 mm 4 mps 713 mmHg 60%
    16:00 +14°C° 0 mm 3 mps 713 mmHg 63%
    17:00 +12°C° 0 mm 3 mps 712 mmHg 74%
    18:00 +10°C° 0 mm 2 mps 712 mmHg 83%
    19:00 +8°C° 0 mm 2 mps 712 mmHg 92%
    20:00 +8°C° 0 mm 2 mps 712 mmHg 93%
    21:00 +8°C° 0 mm 2 mps 712 mmHg 93%
    22:00 +8°C° 0 mm 2 mps 711 mmHg 94%
    23:00 +8°C° 0 mm 2 mps 711 mmHg 94%

    31 May, Sunday

    Time Temperature Precipitation Wind Pressure Humidity
    00:00 +8°C° 0 mm 3 mps 711 mmHg 95%
    01:00 +8°C° 0 mm 3 mps 710 mmHg 95%
    02:00 +8°C° 0 mm 3 mps 710 mmHg 93%
    03:00 +7°C° 0 mm 4 mps 710 mmHg 91%
    04:00 +7°C° 0 mm 4 mps 710 mmHg 89%
    05:00 +7°C° 0 mm 4 mps 710 mmHg 90%
    06:00 +8°C° 0 mm 3 mps 710 mmHg 90%
    07:00 +8°C° 0 mm 3 mps 710 mmHg 90%
    08:00 +8°C° 0 mm 4 mps 710 mmHg 84%
    09:00 +10°C° 0 mm 4 mps 710 mmHg 78%
    10:00 +10°C° 0 mm 5 mps 710 mmHg 71%
    11:00 +10°C° 0 mm 5 mps 710 mmHg 70%
    12:00 +12°C° 0 mm 5 mps 709 mmHg 68%
    13:00 +12°C° 0 mm 5 mps 709 mmHg 66%
    14:00 +12°C° 0 mm 4 mps 708 mmHg 67%
    15:00 +12°C° 0 mm 4 mps 708 mmHg 68%
    16:00 +12°C° 0 mm 4 mps 708 mmHg 70%
    17:00 +11°C° 0 mm 3 mps 707 mmHg 74%
    18:00 +9°C° 0 mm 3 mps 707 mmHg 79%
    19:00 +8°C° 0 mm 2 mps 707 mmHg 83%
    20:00 +8°C° 0 mm 3 mps 707 mmHg 85%
    21:00 +8°C° 0 mm 3 mps 707 mmHg 86%
    22:00 +8°C° 0 mm 3 mps 707 mmHg 88%
    23:00 +8°C° 0 mm 3 mps 706 mmHg 85%

    1 June, Monday

    Time Temperature Precipitation Wind Pressure Humidity
    00:00 +7°C° 0 mm 4 mps 705 mmHg 82%
    01:00 +8°C° 0 mm 5 mps 705 mmHg 79%
    02:00 +8°C° 0.1 mm 5 mps 704 mmHg 79%
    03:00 +8°C° 0.1 mm 6 mps 704 mmHg 80%
    04:00 +8°C° 0.1 mm 6 mps 703 mmHg 80%
    05:00 +7°C° 0.1 mm 6 mps 703 mmHg 83%
    06:00 +7°C° 0.1 mm 6 mps 702 mmHg 86%
    07:00 +5°C° 0.1 mm 6 mps 702 mmHg 89%
    08:00 +5°C° 0.6 mm 6 mps 702 mmHg 90%
    09:00 +5°C° 0.6 mm 7 mps 702 mmHg 91%
    10:00 +5°C° 0.6 mm 8 mps 702 mmHg 92%
    11:00 +5°C° 0.5 mm 7 mps 702 mmHg 86%
    12:00 +5°C° 0.5 mm 7 mps 702 mmHg 80%
    13:00 +5°C° 0.5 mm 7 mps 702 mmHg 74%
    14:00 +5°C° 0 mm 7 mps 703 mmHg 72%
    15:00 +4°C° 0 mm 7 mps 703 mmHg 70%
    16:00 +3°C° 0 mm 7 mps 704 mmHg 69%
    17:00 +3°C° 0 mm 6 mps 704 mmHg 74%
    18:00 +2°C° 0 mm 6 mps 705 mmHg 79%
    19:00 +1°C° 0 mm 5 mps 706 mmHg 84%
    20:00 +1°C° 0 mm 5 mps 706 mmHg 83%
    21:00 0°C° 0 mm 4 mps 707 mmHg 83%
    22:00 0°C° 0 mm 4 mps 707 mmHg 83%
    23:00 0°C° 0 mm 4 mps 708 mmHg 84%

    2 June, Tuesday

    Time Temperature Precipitation Wind Pressure Humidity
    00:00 0°C° 0 mm 3 mps 708 mmHg 85%
    01:00 0°C° 0 mm 3 mps 708 mmHg 87%
    02:00 0°C° 0 mm 3 mps 708 mmHg 88%
    03:00 0°C° 0 mm 3 mps 708 mmHg 89%
    04:00 -1°C° 0 mm 2 mps 709 mmHg 91%
    05:00 -1°C° 0 mm 2 mps 709 mmHg 92%
    06:00 -1°C° 0 mm 2 mps 710 mmHg 93%
    07:00 -1°C° 0 mm 2 mps 711 mmHg 94%
    08:00 +2°C° 0 mm 2 mps 711 mmHg 85%
    09:00 +5°C° 0 mm 2 mps 712 mmHg 76%
    10:00 +7°C° 0 mm 2 mps 712 mmHg 66%
    11:00 +8°C° 0 mm 3 mps 713 mmHg 62%
    12:00 +10°C° 0 mm 3 mps 713 mmHg 58%
    13:00 +12°C° 0 mm 3 mps 713 mmHg 54%
    14:00 +11°C° 0 mm 3 mps 713 mmHg 58%
    15:00 +11°C° 0 mm 3 mps 713 mmHg 61%
    16:00 +10°C° 0 mm 3 mps 713 mmHg 65%
    17:00 +8°C° 0 mm 2 mps 714 mmHg 75%
    18:00 +6°C° 0 mm 2 mps 714 mmHg 84%
    19:00 +5°C° 0 mm 1 mps 715 mmHg 93%
    20:00 +4°C° 0 mm 1 mps 715 mmHg 94%
    21:00 +4°C° 0 mm 1 mps 715 mmHg 94%
    22:00 +3°C° 0 mm 0 mps 716 mmHg 95%
    23:00 +2°C° 0 mm 0 mps 716 mmHg 95%
    Show more